Regional Weather Roundup
Issued by NWS Upton, NY

Home | Current Version | Previous Version | Text Only | Print | Product List | Glossary On
Versions: 1 2 3 4 5 6 7 8 9 10 11 12 13 14 15 16 17 18 19 20 21 22 23 24 25 26 27 28
000
ASUS41 KOKX 191805
RWROKX

REGIONAL WEATHER ROUNDUP
NATIONAL WEATHER SERVICE NEW YORK NY
200 PM EDT SAT APR 19 2014

NOTE: "FAIR" INDICATES FEW OR NO CLOUDS BELOW 12,000 FEET WITH NO
SIGNIFICANT WEATHER AND/OR OBSTRUCTIONS TO VISIBILITY.

NYZ071-072-176-178-NJZ106-104-191900-
NEW YORK CITY METRO AREA


CITY           SKY/WX    TMP DP  RH WIND       PRES   REMARKS
CENTRAL PARK   SUNNY     64  25  22 VRB3      30.25F
LAGUARDIA APRT PTSUNNY   61  25  25 NW10      30.23F
KENNEDY INTL   PTSUNNY   65  18  16 N12G22    30.23F
NEWARK/LIBERTY PTSUNNY   65  27  23 N14G21    30.23F
TETERBORO      SUNNY     65  29  25 N8G16     30.22F
$$

NYZ177-179-078>081-191900-
LONG ISLAND NEW YORK

CITY           SKY/WX    TMP DP  RH WIND       PRES   REMARKS
FARMINGDALE    MOSUNNY   63  25  23 NW10G20   30.23F
ISLIP          PTSUNNY   63  26  24 NW13G22   30.22F
SHIRLEY        MOSUNNY   61  28  28 N12G21    30.24F
WESTHAMPTON    MOSUNNY   62  27  26 NW14G22   30.24S
MONTAUK POINT    N/A     58  33  39 W10       30.22F
$$

NYZ052-065-067-191900-
HUDSON VALLEY

CITY           SKY/WX    TMP DP  RH WIND       PRES   REMARKS
WHITE PLAINS   SUNNY     62  24  23 N9G18     30.22F
NEWBURGH       SUNNY     63  27  25 N14G21    30.24F
MONTGOMERY     SUNNY     64  24  21 N14G24    30.22F
POUGHKEEPSIE   SUNNY     62  29  28 NE16G25   30.23F
ALBANY         PTSUNNY   57  32  38 VRB5      30.28F
$$

NJZ001-105-106-008-010-013-015-019>022-104-191900-
NEW JERSEY

CITY           SKY/WX    TMP DP  RH WIND       PRES   REMARKS
NEWARK/LIBERTY PTSUNNY   65  27  23 N14G21    30.23F
TETERBORO      SUNNY     65  29  25 N8G16     30.22F
CALDWELL       SUNNY     63  23  21 NW9G20    30.23F
MORRISTOWN     NOT AVBL
SOMERVILLE     SUNNY     64  22  20 NW9       30.23F
LINDEN         FAIR      65  29  25 NW14      30.25F
SUSSEX         SUNNY     64  22  20 NE15G24   30.24F
ANDOVER          N/A     62  25  24 N10G18    30.25F
TRENTON        SUNNY     65  22  19 N13G22    30.24F
MILLVILLE      MOSUNNY   66  33  29 NE8       30.23F
ATLANTIC CITY  MOSUNNY   68  30  24 N15       30.22F
WRIGHTSTOWN    MOSUNNY   65  31  28 VRB3      30.22F
TOMS RIVER     MOSUNNY   64  28  25 N9        30.23S
BELMAR         MOSUNNY   64  27  24 N15       30.23F
$$

PAZ047>061-062-071-191900-
EASTERN PENNSYLVANIA

CITY           SKY/WX    TMP DP  RH WIND       PRES   REMARKS
PHILADELPHIA   PTSUNNY   67  30  25 NE9       30.25F
ALLENTOWN      SUNNY     63  25  23 NW13G20   30.27F
SCRANTON       SUNNY     57  26  30 N13G26    30.28F
$$

CTZ002-004>006-009-010-012-RIZ004-006-007-MAZ004-011-015-191900-
SOUTHERN NEW ENGLAND
 IN CT

CITY           SKY/WX    TMP DP  RH WIND       PRES   REMARKS
BRADLEY INTL   MOSUNNY   63  28  26 N20G29    30.20F
HARTFORD       SUNNY     62  29  28 N12G23    30.21F
DANBURY        SUNNY     61  28  28 N14       30.24F
WTRBRY/OXFORD  SUNNY     57  30  35 N15G26    30.24F
BRIDGEPORT     SUNNY     65  28  24 MISG      30.22F
MERIDEN        SUNNY     62  28  27 N12G18    30.22F
NEW HAVEN      SUNNY     65  27  23 NW10G21   30.21F
CHESTER        FAIR      61  28  29 N12G22    30.21F
GROTON         SUNNY     65  29  25 N15G24    30.19F
WILLIMANTIC    SUNNY     62  29  28 N10G22    30.20F

 IN RI

CITY           SKY/WX    TMP DP  RH WIND       PRES   REMARKS
PROVIDENCE     MOSUNNY   63  27  25 N23G29    30.19F
BLOCK ISLAND   SUNNY     55  36  47 W14G20    30.19F
WESTERLY       SUNNY     63  27  25 NW12G25   30.19F

 IN MA

CITY           SKY/WX    TMP DP  RH WIND       PRES   REMARKS
BOSTON         MOSUNNY   60  29  30 NW14G24   30.19F
WORCESTER      SUNNY     56  27  32 NW12G20   30.19F
WESTFIELD      SUNNY     62  29  28 N18       30.21F
PROVINCETOWN   SUNNY     52  37  58 MISG      30.20F
NANTUCKET      SUNNY     57  36  45 NW10G16   30.20S
$$

ANZ330-335-338-340-345-350-353-355-191900-
COASTAL MARINE OBSERVATIONS


STATION/POSITION TIME  SKY/WX   TEMP    WIND        PRES    VSBY  WAVE
                                AIR SEA DIR/SP/G                  HT/PER
                 (UTC)          (F)     (DEG/KT/KT) (MB)    (MI)  (FT/S)
NY HARB ENTRANCE 1800            53 46   50/  2/  4 1023.8
4S FIRE IS       1700               46                N/A           4/10
23SW MTP         1800            44 43  240/ 10/ 12 1023.0          4/10
HUDSON CANYON    1700            44 44  310/  8/ 10 1024.2          5/11
EXECUTION ROCKS  1800            57 42  340/ 12/ 17   N/A
WESTERN LI SOUND 1800            55     170/  4/  6   N/A           0
CENTRAL LI SOUND 1700            49 44  260/  4/  6   N/A           1
EASTERN LI SOUND NOT AVBL
ROBBINS REEF     1800            58      20/ 16/ 19   N/A
$$


>>>>>>>>>>>>>>>>>>>>>>>>>>>> KEY <<<<<<<<<<<<<<<<<<<<<<<<<<<
>                                                          <
>     SKY/WX - SKY CONDITION/PRESENT WEATHER               <
>     TMP    - TEMPERATURE IN FAHRENHEIT                   <
>     DP     - DEWPOINT IN FAHRENHEIT                      <
>     RH     - RELATIVE HUMIDITY IN PERCENT                <
>     WIND   - DIRECTION AND SPEED IN MPH                  <
>     PRES   - MEAN SEA LEVEL PRESSURE IN INCHES OF HG     <
>     WCI    - WIND CHILL INDEX                            <
>     VSB    - VISIBILITY IN MILES                         <
>     HX     - HEAT INDEX                                  <
>     TC     - TEMPERATURE IN CELSIUS                      <
>     VRB    - VARIABLE WIND DIRECTION                     <
>                                                          <
>>>>>>>>>>>>>>>>>>>>>>>>>>>> KEY <<<<<<<<<<<<<<<<<<<<<<<<<<<





USA.gov is the U.S. government's official web portal to all federal, state and local government web resources and services.